Location: Dermulo
(46.3333°N, 11.0667°E)
Time: 15:25:18
(UTC+00:00)

Daily predictions for brighter satellites

Satellite Brightness Start Highest point End
(mag) Time Altitude Azimuth Time Altitude Azimuth Time Altitude Azimuth
CZ-2C R/B 3.4 17:22:42 10° SSE 17:28:27 89° WSW 17:34:00 10° NNW
Cosmos 1862 Rocket 4.1 17:24:19 10° N 17:28:33 39° ENE 17:32:46 10° SE
Cosmos 2322 Rocket 2.5 17:25:28 10° S 17:30:44 44° ESE 17:36:02 10° NE
Aureole 2 Rocket 3.2 17:30:45 10° N 17:32:41 19° ENE 17:34:33 10° ESE
Sich 1 3.3 17:29:35 10° SSW 17:33:58 79° W 17:38:26 10° N
Nadezhda 3 Rocket 4.3 17:29:40 10° N 17:35:49 48° ENE 17:41:57 10° SSE
Cosmos 1461 3.4 17:31:15 10° SW 17:35:59 79° NW 17:40:45 10° NE
ATLAS 5 CENTAUR R/B 4.1 17:19:58 10° SW 17:36:39 59° NW 17:40:58 10° NE
Meteor 1-25 Rocket 4.3 17:32:12 10° S 17:37:53 64° E 17:43:31 10° NNE
Cosmos 2074 Rocket 4.0 17:35:44 10° S 17:41:58 77° E 17:48:14 10° NNE
Cosmos 2154 Rocket 4.2 17:36:19 10° SSE 17:42:16 50° E 17:48:13 10° NNE
YAOGAN 1 2.6 17:39:14 10° SSE 17:43:29 61° ENE 17:47:46 10° N
Abrixas rocket 1.7 17:41:07 10° W 17:43:35 64° NNW 17:45:57 11° ENE
Helios 1A Rocket 3.5 17:40:01 10° SE 17:43:44 36° ENE 17:47:27 10° N
APEX 3.5 17:43:59 10° NW 17:46:42 46° WSW 17:49:19 10° S
Cosmos 2219 Rocket 3.7 17:46:13 10° ESE 17:48:39 13° E 17:51:07 10° ENE
COSMO-SKYMED 1 3.2 17:45:39 10° N 17:49:57 63° WNW 17:54:15 10° SSW
GP-B 4.0 17:47:10 10° SE 17:50:57 28° ENE 17:54:45 10° NNE
Cosmos 1992 Rocket 4.1 17:49:31 10° S 17:54:36 55° ESE 17:59:42 10° NNE
SL-16 R/B 2.2 17:49:31 10° SSW 17:55:11 84° ESE 18:00:54 10° NNE
Cosmos 2263 Rocket 3.4 17:50:04 10° NW 17:55:21 45° WSW 18:00:37 10° S
Meteor 1-18 Rocket 4.3 17:50:10 10° N 17:56:07 68° ENE 18:01:59 10° SSE
Cosmos 968 Rocket 3.6 17:51:02 10° NNW 17:56:19 83° WSW 18:01:35 10° SSE
ARGOS 3.2 17:51:14 10° SSE 17:56:35 64° ENE 18:01:58 10° N
USA 234 3.9 17:53:32 10° ENE 17:59:25 35° SE 18:05:16 10° SSW
Cosmos 1486 Rocket 4.1 17:54:46 10° NNW 18:00:05 87° WSW 18:05:24 10° SSE
Cosmos 1515 3.6 17:56:32 10° N 18:00:23 80° E 18:04:11 10° SSE
Okean 1 3.2 17:56:26 10° N 18:00:29 78° E 18:04:30 10° SSE
Cosmos 1633 Rocket 3.2 17:58:04 10° SSW 18:02:29 78° W 18:06:57 10° N
Cosmos 2184 Rocket 4.2 17:56:25 10° SSW 18:02:35 80° W 18:08:50 10° N
SeaSat 1 2.7 17:58:01 10° NE 18:02:46 45° ESE 18:07:29 10° S
OBJECT-B 2.8 18:03:20 13° ENE 18:03:20 13° ENE 18:04:39 10° NE
Okean 1-7 3.8 18:00:02 10° N 18:03:56 31° ENE 18:07:49 10° SE
H-2A R/B 2.4 18:02:30 10° S 18:07:56 75° WSW 18:13:25 10° NNW
CZ-4 R/B 1.9 18:04:09 10° S 18:07:57 61° W 18:11:50 10° NNW
CZ-2C R/B 2.8 18:02:49 10° NNE 18:08:10 51° E 18:13:22 10° S
SAR-Lupe-4 3.4 18:07:10 10° NNE 18:10:44 69° ESE 18:14:18 10° S
USA 305 4.3 18:07:41 10° WNW 18:11:29 30° N 18:14:50 12° NE
Gbstr 26 Del rocket 4.0 18:09:55 10° W 18:14:13 47° N 18:18:27 15° ENE
SL-8 Rocket 4.5 18:08:41 10° SSE 18:14:18 37° E 18:19:53 10° NNE
Cosmos 2237 4.2 18:08:50 10° SSW 18:14:29 65° ESE 18:20:11 10° NNE
SL-4 R/B 2.5 18:13:33 10° WNW 18:16:54 38° N 18:18:38 22° ENE
Cosmos 1869 Rocket 4.5 18:15:46 10° SE 18:19:21 26° E 18:22:59 10° NNE
USA 307 4.3 18:19:03 10° WNW 18:22:51 29° N 18:25:41 15° NE
USA 186 3.0 18:25:08 18° NNE 18:25:08 18° NNE 18:26:04 10° N
ATLAS CENTAUR R/B 1.0 18:20:40 10° SSW 18:24:15 62° SE 18:26:57 17° NE
FALCON 9 DEB 3.1 18:21:23 10° WNW 18:24:48 70° NNE 18:26:13 32° ESE
USA 306 4.3 18:22:31 10° WNW 18:26:17 29° N 18:28:56 16° NE
Cosmos 1354 Rocket 3.9 18:21:31 10° NNW 18:26:48 81° ENE 18:32:02 10° SSE
Okean-O 3.6 18:23:30 10° S 18:27:48 49° W 18:32:08 10° NNW
ERS-2 2.5 18:24:22 10° N 18:28:00 67° WNW 18:31:37 10° SSW
Cosmos 44 Rocket 4.2 18:23:10 10° NW 18:28:17 53° WSW 18:33:19 10° SSE
CSL-04 Rocket 3.7 18:23:30 10° SSE 18:29:03 87° WSW 18:34:37 10° NNW
Cosmos 2366 rocket 4.4 18:23:30 10° SSE 18:29:16 39° E 18:35:05 10° NNE
SAR-Lupe-1 4.4 18:26:35 10° N 18:30:10 66° WNW 18:33:43 10° SSW
CSL-04 Debris 4.3 18:24:59 10° SSE 18:30:25 79° WSW 18:35:56 10° NNW
Cosmos 1844 Rocket 2.6 18:24:58 10° NNW 18:30:35 79° ENE 18:36:09 10° SSE
Cosmos 2084 Rocket 3.9 18:26:29 10° NW 18:30:47 62° SW 18:34:59 11° SSE
USA 308 4.4 18:29:44 10° WNW 18:33:30 29° N 18:35:51 18° NE
Cosmos 1666 2.8 18:30:07 10° SSE 18:33:40 46° E 18:37:16 10° NNE
Cosmos 1777 Rocket 4.3 18:30:24 10° NNW 18:35:27 45° ENE 18:37:59 26° ESE
Cosmos 1503 Rocket 4.2 18:31:49 10° NNW 18:37:00 73° WSW 18:42:08 10° SSE
Cosmos 2341 Rocket 3.9 18:31:21 10° S 18:37:36 70° E 18:43:50 10° NNE
Meteor 1-5 Rocket 4.0 18:32:40 10° S 18:37:58 67° E 18:43:26 10° NNE
Cosmos 2333 4.4 18:33:03 10° S 18:38:26 47° ESE 18:43:52 10° NE
Cosmos 1470 Rocket 4.4 18:37:22 10° SSW 18:41:45 53° WNW 18:46:08 10° N
Cosmos 1844 3.6 18:36:35 10° NNW 18:42:25 81° ENE 18:46:58 17° SSE
Okean 3 3.9 18:38:34 10° N 18:42:34 38° ENE 18:42:57 37° E
Ariane Rocket 3.2 18:42:04 27° SE 18:44:29 47° ENE 18:49:23 10° N
Cosmos 2360 Rocket 2.2 18:38:54 10° SSW 18:44:33 88° WNW 18:50:16 10° NNE
Cosmos 2278 Rocket 3.3 18:43:04 10° N 18:47:46 26° NE 18:48:36 25° ENE
Cosmos 1727 Rocket 4.3 18:44:54 10° N 18:50:45 42° ENE 18:52:57 32° ESE
Cosmos 1500 4.2 18:48:52 10° SSW 18:52:28 46° WNW 18:56:05 10° N
Meteor 2-4 Rocket 4.1 18:48:23 10° NNW 18:54:12 69° W 19:00:04 10° S
Cosmos 1703 Rocket 3.7 18:50:01 10° NNW 18:54:25 76° W 18:58:46 10° S
Cosmos 2333 Rocket 2.3 18:49:14 10° S 18:54:41 51° ESE 19:00:13 10° NE
Cosmos 2218 Rocket 4.0 18:49:53 10° S 18:56:11 64° E 19:02:30 10° NNE
Resurs 01 Rocket 2.9 19:12:41 28° NNE 19:12:41 28° NNE 19:15:13 10° N
Cosmos 864 Rocket 4.3 19:06:50 10° S 19:12:57 79° E 19:19:12 10° N
Cosmos 2322 Rocket 3.8 19:09:50 10° WSW 19:14:54 34° NW 19:19:59 10° NNE
Lacrosse 4 Rocket 2.8 19:12:17 10° SSW 19:14:29 29° S 19:14:29 29° S
SME Rocket 4.1 19:10:02 10° NNE 19:18:23 86° ESE 19:23:42 10° SSW
Cosmos 1959 Rocket 4.3 19:12:18 10° S 19:18:23 89° E 19:24:33 10° N
Cosmos 192 4.2 19:16:59 10° SSW 19:21:53 86° WNW 19:26:51 10° NNE
SJ-6B 3.5 19:22:30 40° SSW 19:23:38 56° W 19:27:38 10° NNW
COSMOS 2428 2.6 19:19:07 10° SSW 19:24:43 65° ESE 19:24:51 64° ESE
ASTEX 1 3.4 19:22:41 10° N 19:27:36 80° W 19:30:11 28° SSW
MOS 1 4.3 19:25:33 31° S 19:28:23 78° WSW 19:34:06 10° NNW
Meteor 1-23 Rocket 4.0 19:24:28 10° N 19:30:04 74° ENE 19:30:27 71° ESE
Cosmos 2219 Rocket 2.0 19:26:06 10° SSW 19:31:41 85° ESE 19:37:20 10° NNE
Meteor 1-11 Rocket 3.8 19:25:58 10° SSW 19:31:42 78° WNW 19:37:21 10° N
OBJECT-B 3.0 19:36:24 24° NW 19:36:24 24° NW 19:38:02 10° NNW
Resurs 1-3 4.0 19:38:47 60° NW 19:38:47 60° NW 19:42:29 10° NNW
SeaSat 1 4.2 19:35:48 10° N 19:40:08 31° NW 19:44:27 10° WSW
SJ 16-02 2.6 19:36:59 10° NNW 19:39:34 34° N 19:39:34 34° N
USA 234 3.2 19:39:54 36° NE 19:42:49 80° NW 19:49:21 10° WSW
Cosmos 1066 Rocket 4.5 19:38:15 10° NNW 19:43:55 68° W 19:45:41 45° SSW
Meteor 2-20 Rocket 4.4 19:43:29 10° N 19:49:08 71° NE 19:49:08 71° NE
Cosmos 2369 Rocket 4.5 19:49:41 10° NNE 19:50:42 11° NNE 19:50:42 11° NNE
Cosmos 2322 4.3 19:46:13 10° SW 19:51:50 56° WNW 19:57:29 10° NNE
BREEZE-M DEB (TANK) 3.5 19:49:07 10° WNW 19:51:09 47° NW 19:51:09 47° NW
SL-4 R/B 4.4 19:53:10 10° WNW 19:54:13 18° WNW 19:54:13 18° WNW
Gbstr 26 Del rocket 4.2 19:56:57 10° WNW 20:00:59 50° NNW 20:00:59 50° NNW
ATLAS CENTAUR R/B 3.8 20:00:59 10° W 20:03:10 17° NW 20:03:10 17° NW
NOSS 3-3 (A) 4.4 20:11:07 10° NW 20:18:40 88° NE 20:18:42 88° ENE
NOSS 3-3 (C) 4.4 20:11:13 10° NW 20:18:46 87° NE 20:18:46 87° NE
Cosmos 2278 Rocket 3.3 20:26:42 10° NNW 20:30:28 41° NW 20:30:28 41° NW
Cosmos 2333 Rocket 3.9 20:34:13 10° WSW 20:39:12 31° NW 20:44:16 10° NNE
Resurs 01 Rocket 4.4 20:50:14 16° NW 20:50:14 16° NW 20:51:22 10° NW
Cosmos 1943 Rocket 4.3 20:46:31 10° NNW 20:48:24 20° N 20:48:24 20° N
Cosmos 2219 Rocket 4.5 21:12:21 10° W 21:16:24 20° NW 21:20:29 10° N
